Total_Precipitation_Accumulation
0.64 0.65 0.65 0.68 0.73 0.79 0.87 0.90 0.90 0.94 0.94 0.94 0.96 0.98 0.98 1.01 1.05 1.08 1.03 1.01 1.03 1.02 1.00 1.03 1.04 1.01 1.01 0.99 1.02 1.06 1.11 1.16 1.16 0.89 0.70 0.67 0.70 0.70 0.69 0.62 0.57 0.56 0.54
0.60 0.57 0.58 0.60 0.62 0.65 0.69 0.74 0.77 0.81 0.83 0.84 0.86 0.87 0.84 0.83 0.87 0.91 0.93 0.91 0.90 0.91 0.93 0.98 1.01 1.02 1.06 1.05 1.08 1.10 1.11 1.11 1.12 1.01 0.81 0.71 0.65 0.61 0.58 0.54 0.49 0.44 0.40
0.43 0.42 0.44 0.46 0.50 0.55 0.58 0.59 0.62 0.69 0.73 0.75 0.75 0.78 0.80 0.78 0.79 0.80 0.80 0.81 0.81 0.81 0.82 0.85 0.86 0.91 0.96 0.96 1.00 1.04 1.04 1.04 1.02 0.94 0.78 0.64 0.56 0.52 0.52 0.49 0.43 0.38 0.33
0.32 0.31 0.33 0.36 0.40 0.44 0.46 0.45 0.46 0.50 0.56 0.60 0.64 0.66 0.68 0.72 0.76 0.78 0.79 0.78 0.76 0.76 0.75 0.77 0.80 0.84 0.88 0.92 0.97 0.97 0.98 0.99 0.99 0.96 0.86 0.71 0.58 0.50 0.50 0.48 0.44 0.37 0.32
0.35 0.33 0.32 0.32 0.34 0.37 0.38 0.39 0.38 0.39 0.41 0.45 0.50 0.58 0.62 0.65 0.69 0.73 0.76 0.78 0.78 0.78 0.80 0.84 0.89 0.98 0.99 0.95 0.91 0.89 0.88 0.92 0.93 0.91 0.82 0.69 0.57 0.51 0.48 0.42 0.40 0.37 0.35
0.42 0.37 0.34 0.33 0.32 0.30 0.29 0.30 0.30 0.32 0.34 0.37 0.42 0.46 0.53 0.60 0.75 0.74 0.70 0.71 0.79 0.83 0.85 0.85 0.87 0.97 0.94 0.93 0.87 0.82 0.82 0.88 0.88 0.82 0.70 0.57 0.44 0.36 0.35 0.40 0.44 0.48 0.46
0.47 0.43 0.36 0.33 0.32 0.29 0.27 0.28 0.30 0.32 0.36 0.39 0.41 0.45 0.51 0.64 0.80 0.76 0.80 0.73 0.76 0.81 0.83 0.81 0.77 0.74 0.76 0.68 0.73 0.77 0.76 0.75 0.70 0.63 0.58 0.46 0.39 0.35 0.41 0.50 0.49 0.46 0.36
0.50 0.48 0.45 0.45 0.45 0.47 0.47 0.48 0.49 0.49 0.50 0.54 0.59 0.62 0.65 0.74 0.80 0.72 0.69 0.64 0.67 0.70 0.68 0.66 0.62 0.56 0.54 0.55 0.57 0.63 0.56 0.52 0.50 0.45 0.42 0.39 0.38 0.39 0.46 0.54 0.55 0.55 0.46
0.67 0.65 0.65 0.67 0.71 0.75 0.77 0.76 0.77 0.79 0.78 0.76 0.73 0.69 0.65 0.65 0.65 0.60 0.55 0.51 0.51 0.51 0.49 0.48 0.47 0.45 0.51 0.57 0.53 0.49 0.44 0.43 0.46 0.48 0.48 0.47 0.50 0.53 0.54 0.59 0.67 0.73 0.63
0.74 0.77 0.81 0.85 0.90 0.87 0.86 0.82 0.75 0.71 0.70 0.68 0.66 0.64 0.57 0.51 0.46 0.41 0.39 0.36 0.35 0.33 0.32 0.32 0.38 0.39 0.47 0.52 0.45 0.42 0.40 0.35 0.36 0.40 0.41 0.40 0.39 0.42 0.52 0.50 0.57 0.75 0.66
0.69 0.71 0.73 0.71 0.72 0.69 0.66 0.62 0.58 0.53 0.47 0.42 0.39 0.36 0.32 0.30 0.29 0.28 0.28 0.26 0.26 0.28 0.27 0.26 0.28 0.37 0.41 0.43 0.43 0.37 0.37 0.40 0.38 0.38 0.40 0.41 0.40 0.40 0.41 0.42 0.46 0.67 0.79
0.49 0.47 0.44 0.39 0.35 0.34 0.34 0.34 0.32 0.30 0.26 0.23 0.20 0.19 0.17 0.16 0.19 0.22 0.25 0.28 0.30 0.28 0.26 0.25 0.27 0.37 0.41 0.41 0.39 0.38 0.43 0.45 0.40 0.42 0.44 0.43 0.41 0.38 0.36 0.36 0.40 0.44 0.52
0.16 0.14 0.13 0.10 0.09 0.08 0.08 0.09 0.11 0.14 0.14 0.14 0.13 0.13 0.14 0.13 0.16 0.20 0.24 0.29 0.33 0.31 0.28 0.31 0.33 0.37 0.38 0.38 0.39 0.41 0.41 0.38 0.37 0.39 0.38 0.36 0.34 0.36 0.40 0.44 0.46 0.47 0.47
0.03 0.03 0.03 0.03 0.03 0.03 0.04 0.04 0.05 0.07 0.09 0.11 0.12 0.12 0.13 0.13 0.15 0.18 0.22 0.27 0.33 0.34 0.33 0.34 0.35 0.36 0.36 0.36 0.38 0.38 0.36 0.35 0.36 0.36 0.34 0.34 0.38 0.43 0.46 0.48 0.51 0.50 0.53
0.03 0.03 0.03 0.03 0.04 0.04 0.04 0.04 0.06 0.06 0.09 0.12 0.14 0.15 0.17 0.17 0.16 0.24 0.29 0.31 0.34 0.36 0.39 0.37 0.35 0.33 0.32 0.32 0.32 0.32 0.33 0.34 0.36 0.35 0.37 0.40 0.41 0.42 0.43 0.44 0.49 0.53 0.53
0.07 0.06 0.07 0.07 0.07 0.07 0.07 0.07 0.09 0.10 0.12 0.14 0.15 0.16 0.17 0.19 0.23 0.29 0.33 0.35 0.39 0.45 0.47 0.40 0.33 0.29 0.28 0.29 0.30 0.31 0.32 0.33 0.34 0.36 0.39 0.41 0.44 0.45 0.43 0.42 0.45 0.51 0.50
0.13 0.14 0.14 0.13 0.13 0.12 0.12 0.13 0.13 0.14 0.16 0.16 0.17 0.18 0.19 0.21 0.25 0.28 0.31 0.35 0.39 0.44 0.42 0.33 0.29 0.27 0.28 0.29 0.32 0.34 0.33 0.31 0.35 0.39 0.42 0.45 0.49 0.48 0.47 0.46 0.46 0.48 0.47
0.14 0.18 0.20 0.19 0.20 0.21 0.20 0.20 0.20 0.20 0.20 0.18 0.19 0.22 0.23 0.24 0.26 0.28 0.32 0.38 0.39 0.37 0.30 0.25 0.24 0.26 0.29 0.32 0.35 0.37 0.37 0.38 0.38 0.39 0.41 0.46 0.52 0.54 0.51 0.48 0.47 0.49 0.51
0.12 0.15 0.18 0.20 0.22 0.24 0.24 0.24 0.24 0.22 0.21 0.19 0.19 0.23 0.28 0.32 0.34 0.33 0.37 0.37 0.31 0.25 0.21 0.20 0.23 0.27 0.31 0.35 0.37 0.40 0.43 0.44 0.44 0.47 0.48 0.48 0.53 0.60 0.55 0.48 0.48 0.47 0.50
0.13 0.18 0.20 0.20 0.22 0.24 0.25 0.25 0.24 0.23 0.21 0.20 0.18 0.19 0.27 0.37 0.34 0.29 0.30 0.30 0.28 0.25 0.22 0.23 0.25 0.29 0.34 0.38 0.41 0.43 0.46 0.46 0.48 0.52 0.53 0.53 0.54 0.60 0.60 0.53 0.51 0.53 0.49
0.16 0.19 0.24 0.22 0.20 0.22 0.24 0.26 0.25 0.24 0.23 0.21 0.18 0.22 0.35 0.40 0.33 0.27 0.26 0.27 0.29 0.29 0.29 0.29 0.30 0.34 0.38 0.42 0.45 0.46 0.45 0.43 0.46 0.52 0.52 0.53 0.55 0.58 0.53 0.54 0.54 0.56 0.59
0.18 0.19 0.21 0.22 0.23 0.25 0.28 0.28 0.29 0.28 0.26 0.25 0.24 0.27 0.38 0.36 0.30 0.28 0.27 0.28 0.29 0.31 0.33 0.37 0.38 0.38 0.44 0.51 0.55 0.55 0.49 0.43 0.43 0.51 0.54 0.51 0.52 0.54 0.57 0.63 0.66 0.67 0.63
0.19 0.20 0.21 0.23 0.26 0.31 0.33 0.29 0.30 0.30 0.30 0.30 0.30 0.31 0.33 0.33 0.31 0.30 0.30 0.31 0.34 0.36 0.36 0.40 0.42 0.40 0.39 0.47 0.54 0.66 0.68 0.57 0.51 0.57 0.69 0.71 0.69 0.71 0.76 0.77 0.71 0.64 0.54
0.20 0.21 0.23 0.24 0.26 0.29 0.30 0.29 0.29 0.30 0.31 0.32 0.32 0.32 0.32 0.33 0.33 0.33 0.34 0.35 0.36 0.37 0.37 0.39 0.40 0.40 0.40 0.46 0.50 0.54 0.62 0.71 0.85 0.95 1.05 1.15 1.01 0.83 0.78 0.72 0.63 0.55 0.51
0.23 0.24 0.25 0.26 0.28 0.29 0.29 0.28 0.28 0.28 0.29 0.30 0.31 0.31 0.31 0.32 0.33 0.34 0.35 0.36 0.36 0.35 0.34 0.36 0.40 0.43 0.44 0.46 0.49 0.51 0.56 0.70 0.93 1.12 1.09 1.01 0.86 0.73 0.73 0.70 0.61 0.56 0.53
0.25 0.27 0.28 0.29 0.29 0.28 0.27 0.27 0.27 0.28 0.29 0.29 0.29 0.31 0.31 0.31 0.32 0.33 0.34 0.35 0.35 0.33 0.32 0.33 0.35 0.41 0.44 0.44 0.41 0.46 0.56 0.65 0.67 0.70 0.85 0.93 0.84 0.72 0.69 0.74 0.67 0.62 0.59